Wind_Speed
37 37 37 38 38 39 40 41 43 44 45 46 46 46 47 48 49 48 48 49 49 49 49 50 51 51 51 51 51 51 52 52 53 54 54 55 56 57 57 58 58 58
36 36 37 38 38 39 40 41 42 43 44 44 44 44 45 46 47 47 47 47 47 47 48 49 49 49 50 50 50 51 51 51 52 52 53 54 55 55 55 55 55 55
35 36 37 38 38 39 39 39 40 41 42 42 42 43 43 44 45 45 45 45 46 47 47 48 48 48 48 48 49 49 49 49 49 50 51 52 52 52 51 51 50 50
35 35 36 37 37 37 37 38 38 39 40 40 40 40 41 42 43 43 44 45 46 47 48 48 47 46 45 46 46 46 45 44 45 46 48 48 48 47 47 46 46 45
32 33 34 35 36 36 36 36 37 37 38 38 38 38 40 42 43 45 46 47 48 48 48 46 44 42 42 42 42 41 40 41 42 44 45 45 45 44 43 42 41 40
30 31 32 33 34 34 35 35 37 37 37 37 37 38 41 44 45 46 47 47 47 46 43 41 39 39 38 38 37 37 38 40 41 43 43 42 41 40 39 37 36 35
28 28 30 31 32 33 33 34 36 37 37 37 38 40 42 44 44 44 44 43 41 39 37 36 35 35 34 34 35 36 38 39 40 41 40 39 37 36 34 33 31 30
27 28 29 31 32 33 34 34 35 36 36 37 39 41 42 41 39 38 37 36 34 33 33 32 32 31 32 33 35 37 38 39 39 38 37 35 33 32 30 28 27 26
27 28 29 30 31 32 32 32 32 33 34 36 37 39 38 36 34 32 31 30 30 29 29 29 29 30 32 33 35 36 37 37 36 34 33 31 29 28 26 24 23 21
26 27 28 29 29 30 31 31 31 31 32 33 35 36 35 33 30 28 27 27 26 26 26 27 29 30 31 33 35 35 35 34 32 31 29 27 25 24 22 20 19 18
24 25 27 29 30 30 31 32 32 32 32 32 33 33 32 29 26 24 24 24 23 24 26 28 29 30 31 33 34 33 32 30 29 27 25 23 22 20 19 17 16 16
24 25 27 29 30 31 32 32 32 32 31 31 31 30 29 25 23 22 22 22 23 24 26 27 28 30 31 32 31 30 29 27 25 24 22 20 19 17 16 15 14 14
23 24 27 29 29 29 30 31 31 31 30 29 29 28 26 23 21 21 22 22 23 24 25 26 27 29 30 30 29 27 26 24 22 21 19 18 16 15 14 13 13 12
23 25 27 28 28 27 28 28 29 29 28 28 27 27 25 21 19 20 21 22 23 23 24 25 27 28 29 28 27 25 23 21 20 18 17 15 14 13 12 12 11 11
24 25 27 28 27 27 27 27 26 26 26 26 26 25 23 20 18 19 21 21 22 22 23 24 26 27 27 27 25 23 21 19 17 16 15 13 12 12 11 11 11 10
25 25 26 28 28 27 26 25 24 24 25 25 24 23 21 18 17 19 20 20 21 21 22 24 25 26 26 25 23 21 19 17 16 14 13 12 11 11 11 11 10 10
26 24 25 27 27 26 24 24 23 23 24 23 22 20 19 17 16 18 19 19 20 20 21 23 24 25 25 24 22 19 18 16 14 13 11 10 10 10 10 11 10 9
26 24 24 26 26 24 23 22 22 23 23 22 20 18 17 16 16 17 18 18 19 19 20 22 23 24 24 23 20 18 16 15 13 11 10 9 9 9 10 9 8 6
26 24 23 25 25 22 21 21 22 22 21 21 19 18 16 15 15 16 17 17 17 17 18 20 22 23 23 22 19 17 15 13 11 10 8 7 7 7 7 6 5 3
25 23 23 24 23 20 20 21 20 20 20 20 19 18 16 15 15 15 16 16 16 15 16 19 20 22 22 21 18 16 14 12 11 9 7 5 5 5 4 3 3 3
24 22 22 23 21 19 18 19 19 18 18 18 18 17 16 15 15 14 14 14 14 13 14 17 19 20 21 20 18 15 13 11 9 8 6 4 3 2 2 2 2 3
23 22 21 21 20 17 16 17 17 17 16 16 17 17 15 14 14 14 13 12 12 11 12 15 17 19 20 19 17 15 12 10 8 7 5 3 2 1 1 2 2 3
23 22 22 21 19 17 16 15 16 16 15 15 15 15 15 14 13 13 12 11 10 10 11 13 15 17 19 19 16 14 12 9 7 5 4 2 1 3 3 3 3 4
25 24 24 22 19 18 17 16 15 15 15 15 14 14 13 13 12 12 11 10 9 9 10 11 12 14 16 17 16 13 11 8 6 3 2 1 2 4 5 4 4 4
26 25 25 24 21 19 18 18 17 16 15 14 14 13 12 11 11 10 10 10 9 9 9 9 10 11 13 15 15 13 10 8 5 3 2 1 3 5 6 6 6 6
28 26 25 26 25 23 21 20 20 19 17 15 14 12 11 11 10 10 9 9 9 9 9 9 9 9 10 12 13 12 10 8 5 3 2 2 3 5 7 7 7 8
Wind_Direction
265 265 265 265 266 267 267 269 270 271 272 274 276 277 278 279 280 281 282 283 283 283 282 282 282 281 280 279 278 278 278 278 278 277 277 277 276 276 276 276 276 276
264 265 266 267 268 269 270 271 272 273 275 276 278 279 279 281 282 283 284 284 283 283 282 282 282 282 280 279 279 279 279 279 279 279 278 278 277 277 277 278 278 277
266 267 268 270 271 272 273 274 274 275 277 279 280 282 283 284 285 285 285 285 284 284 284 284 284 283 281 280 280 281 281 281 281 280 279 279 279 279 280 280 279 279
270 272 273 275 276 278 278 279 279 280 281 283 285 286 286 286 287 287 287 286 286 286 287 287 286 283 281 281 282 283 283 283 282 282 282 282 283 284 284 283 282 281
273 275 278 279 281 282 282 282 283 283 284 286 288 288 288 288 289 289 289 288 287 287 287 287 285 283 283 283 285 286 286 286 286 286 286 287 288 288 287 286 284 283
275 277 279 282 284 284 285 285 285 286 288 289 289 289 291 292 292 290 289 287 287 287 287 286 285 285 285 287 289 290 291 290 290 291 291 291 291 290 289 287 286 284
282 284 286 289 290 290 290 289 288 289 289 289 289 292 294 294 292 289 288 287 287 287 287 287 287 288 290 293 295 295 295 294 295 294 294 293 292 291 289 288 286 284
291 293 295 296 296 296 294 292 291 290 290 291 292 294 295 294 292 290 290 290 290 289 288 289 290 293 297 299 299 298 298 298 297 296 295 294 293 290 289 287 285 283
293 293 295 296 297 297 297 297 296 295 295 295 296 297 297 297 296 296 296 295 292 291 291 293 297 300 303 303 302 302 301 300 299 297 296 294 292 290 288 287 284 282
291 291 294 297 298 299 300 301 301 300 300 300 300 300 300 300 300 300 299 296 294 295 297 300 303 305 307 307 305 304 303 302 300 298 296 294 292 290 288 287 285 283
294 295 299 301 302 303 303 303 303 303 303 303 302 301 301 301 302 301 298 296 298 301 303 304 308 311 311 310 308 306 305 303 301 298 297 295 293 290 289 289 287 284
300 301 303 305 305 305 304 303 303 304 304 304 302 301 301 302 303 301 299 300 302 304 306 308 313 315 314 312 311 310 308 305 301 299 298 295 292 290 290 289 286 283
303 304 306 306 305 304 302 302 304 304 304 304 304 303 302 302 303 302 301 302 304 306 309 313 317 318 316 315 315 313 310 306 303 300 297 293 290 289 288 285 282 281
304 305 308 307 305 304 303 304 304 304 304 305 306 305 303 302 303 301 301 303 306 309 313 317 320 321 320 320 319 316 312 308 304 299 295 290 287 285 283 281 280 281
306 307 309 308 307 308 307 305 304 305 307 308 307 306 303 302 301 300 301 304 308 312 316 321 324 324 324 325 323 319 315 311 305 298 292 287 284 282 280 278 279 282
308 309 309 309 310 311 310 306 306 308 310 310 308 306 304 301 300 300 302 307 311 314 319 324 327 328 330 329 326 323 319 314 308 300 291 285 282 280 279 278 279 281
307 308 308 308 311 313 311 307 308 311 312 312 310 308 305 302 301 301 304 309 313 317 322 327 330 332 334 333 330 327 324 319 313 304 291 282 278 277 276 277 279 282
304 306 306 307 310 313 309 308 310 312 313 313 312 310 307 303 302 303 305 309 314 319 325 329 332 337 338 336 334 332 329 325 318 307 292 281 275 273 273 273 275 275
300 302 302 305 309 310 307 307 310 312 314 316 315 313 310 306 303 302 304 309 314 321 327 331 335 340 341 339 338 336 334 331 324 310 295 285 276 269 267 264 257 235
297 297 298 302 306 306 305 307 311 313 316 317 317 316 314 308 303 301 303 309 315 322 329 333 337 343 344 343 342 340 338 336 329 317 305 294 278 263 253 240 223 185
294 292 294 298 300 301 304 309 313 315 316 317 317 318 316 311 305 302 304 309 315 322 330 333 338 345 347 346 345 343 341 340 335 325 319 305 277 247 226 209 191 159
291 287 287 290 292 295 301 308 312 314 315 315 315 316 317 314 308 305 306 310 314 322 329 333 339 347 349 349 349 347 345 344 339 332 325 305 267 164 131 145 158 161
287 282 279 282 284 287 294 302 306 309 310 311 312 313 314 315 312 308 308 311 314 319 326 331 338 347 351 351 352 350 348 348 346 340 328 303 142 115 121 141 164 173
284 279 276 275 275 280 289 294 296 300 303 305 306 309 311 312 313 311 310 312 315 316 320 327 335 345 351 353 354 354 353 350 355 2 356 19 106 119 135 150 159 146
279 279 275 272 270 273 281 287 289 289 291 294 298 304 308 309 311 313 312 314 317 315 315 321 330 341 350 353 356 359 359 354 360 29 51 88 127 138 146 145 134 118
273 275 273 269 267 267 271 279 284 282 279 281 289 297 302 304 308 312 314 316 317 315 313 313 319 331 344 351 355 360 3 1 5 34 80 133 151 150 144 135 125 117
Height
10628 10628 10628 10628 10628 10628 10628 10628 10626 10626 10624 10624 10624 10624 10622 10620 10618 10618 10616 10614 10613 10612 10609 10606 10605 10604 10602 10600 10598 10596 10594 10592 10591 10589 10588 10586 10584 10582 10580 10580 10578 10577
10623 10623 10623 10624 10624 10624 10624 10623 10622 10620 10619 10618 10618 10617 10615 10613 10612 10611 10610 10608 10606 10604 10602 10600 10598 10596 10594 10592 10590 10588 10586 10585 10584 10582 10580 10578 10576 10574 10573 10572 10570 10569
10619 10619 10618 10618 10619 10619 10618 10618 10616 10616 10614 10613 10612 10611 10609 10607 10606 10605 10604 10602 10600 10598 10596 10594 10592 10590 10587 10584 10582 10580 10580 10578 10576 10574 10572 10570 10568 10567 10566 10564 10562 10561
10615 10614 10614 10614 10614 10614 10613 10612 10612 10610 10609 10608 10608 10606 10604 10602 10601 10600 10598 10596 10594 10592 10590 10588 10586 10584 10580 10578 10576 10574 10573 10572 10569 10566 10564 10562 10561 10560 10558 10556 10555 10554
10611 10610 10610 10609 10609 10608 10608 10607 10606 10604 10604 10603 10602 10601 10599 10597 10596 10594 10592 10589 10587 10585 10583 10582 10580 10577 10575 10572 10570 10569 10567 10565 10562 10560 10557 10556 10554 10553 10552 10550 10548 10547
10608 10608 10606 10606 10606 10604 10604 10603 10602 10600 10600 10599 10598 10596 10594 10592 10590 10588 10585 10582 10581 10580 10578 10576 10574 10572 10570 10568 10566 10564 10561 10558 10556 10553 10551 10550 10548 10546 10545 10544 10542 10542
10605 10604 10604 10602 10602 10601 10600 10598 10598 10596 10595 10594 10592 10590 10588 10586 10584 10581 10579 10577 10576 10574 10572 10570 10568 10566 10565 10563 10560 10558 10555 10552 10550 10548 10546 10544 10543 10542 10540 10538 10538 10536
10601 10600 10600 10598 10598 10596 10595 10594 10592 10591 10590 10588 10587 10584 10582 10580 10578 10576 10574 10572 10570 10569 10568 10566 10564 10562 10560 10558 10556 10552 10550 10548 10545 10542 10540 10540 10538 10536 10536 10534 10534 10532
10597 10596 10596 10595 10594 10592 10590 10589 10588 10586 10585 10584 10582 10579 10576 10574 10573 10571 10569 10568 10566 10565 10564 10562 10560 10558 10556 10554 10550 10548 10546 10542 10540 10538 10536 10535 10534 10532 10532 10532 10530 10529
10594 10594 10592 10591 10590 10588 10586 10584 10583 10582 10580 10579 10576 10574 10572 10570 10568 10566 10565 10564 10563 10562 10560 10558 10556 10554 10552 10550 10546 10544 10541 10538 10536 10534 10532 10532 10530 10529 10528 10528 10527 10526
10591 10590 10589 10587 10586 10584 10582 10580 10579 10578 10576 10574 10572 10570 10568 10566 10564 10563 10562 10561 10560 10558 10556 10554 10552 10550 10548 10545 10542 10540 10537 10534 10532 10530 10529 10528 10527 10526 10526 10525 10524 10524
10588 10586 10586 10584 10582 10580 10578 10576 10575 10574 10572 10570 10568 10566 10564 10562 10561 10560 10558 10558 10557 10556 10554 10552 10549 10547 10544 10542 10538 10536 10533 10530 10528 10527 10526 10525 10524 10524 10523 10522 10522 10522
10584 10584 10582 10580 10578 10578 10576 10574 10572 10570 10568 10566 10564 10562 10560 10559 10558 10556 10556 10554 10554 10552 10550 10548 10546 10544 10540 10538 10535 10532 10530 10528 10526 10524 10523 10522 10522 10522 10521 10521 10520 10520
10582 10581 10580 10578 10576 10574 10572 10570 10568 10566 10565 10563 10561 10559 10557 10556 10554 10553 10552 10552 10551 10550 10548 10545 10543 10540 10538 10534 10532 10529 10527 10525 10524 10522 10521 10520 10520 10520 10519 10519 10518 10518
10579 10578 10576 10574 10572 10571 10569 10567 10566 10564 10562 10560 10558 10556 10554 10552 10552 10550 10550 10548 10548 10546 10544 10542 10540 10538 10534 10532 10529 10526 10524 10523 10521 10520 10519 10518 10518 10518 10518 10517 10516 10516
10576 10575 10574 10571 10569 10568 10566 10564 10562 10560 10558 10556 10554 10552 10550 10550 10548 10548 10546 10546 10544 10543 10541 10539 10537 10534 10532 10528 10526 10524 10522 10520 10520 10518 10517 10516 10516 10516 10516 10516 10515 10514
10573 10572 10570 10568 10566 10565 10563 10561 10559 10557 10555 10553 10551 10549 10548 10547 10546 10544 10544 10543 10542 10540 10538 10536 10534 10532 10529 10526 10524 10522 10520 10519 10518 10516 10516 10515 10514 10514 10514 10514 10514 10513
10570 10569 10568 10566 10564 10562 10560 10558 10556 10554 10552 10550 10548 10546 10545 10544 10543 10542 10541 10540 10540 10538 10536 10534 10532 10530 10527 10524 10522 10520 10518 10518 10516 10515 10514 10514 10514 10514 10513 10512 10512 10512
10566 10566 10564 10563 10561 10560 10558 10556 10554 10552 10550 10548 10546 10544 10542 10542 10540 10540 10538 10538 10537 10536 10534 10532 10530 10528 10525 10522 10520 10519 10518 10516 10515 10514 10514 10513 10512 10512 10512 10512 10512 10512
10563 10562 10561 10560 10558 10557 10555 10553 10552 10550 10548 10546 10544 10542 10540 10540 10538 10537 10536 10536 10534 10533 10532 10530 10528 10526 10524 10521 10520 10518 10516 10515 10514 10514 10513 10512 10512 10512 10512 10512 10512 10512
10560 10559 10558 10557 10556 10554 10553 10552 10550 10548 10546 10544 10542 10540 10539 10538 10536 10535 10534 10532 10532 10531 10530 10528 10526 10524 10522 10520 10518 10517 10516 10514 10514 10513 10512 10512 10512 10512 10512 10512 10512 10512
10556 10556 10554 10554 10553 10552 10551 10550 10548 10546 10544 10542 10540 10538 10537 10536 10534 10533 10532 10530 10530 10528 10528 10526 10525 10523 10521 10520 10518 10516 10515 10514 10513 10513 10512 10512 10512 10512 10512 10512 10513 10512
10554 10552 10552 10551 10550 10550 10549 10548 10546 10544 10542 10540 10538 10537 10535 10534 10532 10532 10530 10528 10528 10527 10526 10526 10524 10522 10520 10519 10518 10516 10514 10514 10513 10512 10512 10512 10512 10512 10512 10513 10514 10514
10550 10549 10548 10548 10548 10547 10546 10545 10544 10542 10540 10538 10537 10535 10534 10532 10531 10530 10528 10527 10526 10525 10524 10524 10523 10522 10520 10518 10517 10516 10514 10514 10513 10512 10513 10513 10512 10512 10513 10514 10514 10514
10547 10546 10545 10544 10544 10544 10543 10542 10541 10540 10538 10537 10536 10534 10532 10530 10529 10528 10526 10526 10524 10524 10523 10522 10522 10521 10520 10518 10517 10516 10515 10514 10514 10513 10513 10513 10513 10513 10514 10514 10514 10515
10543 10542 10542 10541 10541 10540 10540 10538 10538 10537 10536 10535 10534 10532 10530 10529 10528 10526 10525 10524 10522 10522 10522 10521 10521 10520 10520 10518 10518 10516 10516 10515 10514 10513 10513 10514 10514 10514 10514 10514 10514 10514